Wind_Speed
21 22 22 23 23 24 24 24 24 23 23 22 22 22 22 22 22 22 22 22 22 22 23 24 25 26 27 27 28 28 28 28 28 28 28 27 27 27 27 26 26 26 25 24 24 22 22 21 20 20 19 18 18 18 18 18 19 19 18 18 17 14 13 12 11 9 12 8 17 22 26 32 35 39 40 39 41 40 33 29 30 33 32 31 32 29 26 26
22 22 22 22 23 23 24 24 24 24 23 23 23 22 22 22 22 21 21 21 21 22 23 24 25 25 26 26 27 27 27 27 27 27 27 27 27 27 26 26 26 26 25 25 24 23 22 21 21 19 19 18 18 19 18 19 19 18 17 18 14 10 11 10 9 11 16 17 23 28 32 35 36 37 36 33 35 32 26 23 25 29 31 31 31 30 29 30
23 23 23 23 23 23 24 24 24 24 24 23 23 23 23 22 22 21 21 21 21 22 23 23 24 24 25 26 26 26 26 26 27 27 27 26 26 26 26 26 26 26 26 25 24 23 22 22 21 20 19 19 18 19 19 20 18 17 18 16 10 10 12 11 12 13 17 23 25 30 32 35 37 33 29 28 27 24 24 25 24 26 29 30 30 28 30 32
24 24 24 25 25 25 24 24 24 24 24 24 24 23 23 22 21 20 20 20 21 21 22 22 22 23 24 24 25 25 25 26 26 26 26 26 26 26 26 26 26 26 26 25 24 24 23 22 21 20 20 19 19 19 19 19 17 16 17 14 10 12 15 16 21 22 24 27 29 30 25 32 37 30 31 30 24 25 25 25 26 26 27 28 30 27 28 32
25 25 25 26 26 26 25 25 24 24 24 24 24 23 23 22 21 20 20 20 20 20 20 20 21 21 22 23 23 24 24 24 25 26 26 26 26 26 26 26 26 26 25 25 24 24 23 22 21 20 20 19 19 19 18 18 18 17 15 14 14 15 17 20 24 25 30 30 28 26 19 27 31 29 35 32 24 29 27 23 26 26 26 28 29 26 26 29
25 25 25 25 26 26 26 25 25 25 24 24 24 23 22 21 20 19 19 19 19 18 18 18 18 19 20 21 21 22 23 22 23 25 25 25 26 26 26 26 25 25 25 25 25 24 24 23 22 21 20 20 20 19 19 19 19 18 16 16 17 18 19 20 22 26 29 27 23 21 18 21 24 29 33 28 27 32 27 22 24 26 28 29 29 25 23 23
25 25 25 25 25 25 25 25 25 25 24 24 23 23 21 20 19 19 19 18 17 16 15 15 15 16 17 18 19 20 21 21 22 24 24 24 25 25 25 25 25 25 25 26 26 26 25 24 23 22 21 21 21 20 21 21 21 20 18 19 19 19 20 23 23 25 27 22 17 15 14 16 20 26 25 23 28 30 26 24 23 26 28 30 28 24 21 22
25 25 24 24 24 24 24 25 25 24 24 23 22 21 20 19 19 18 17 16 15 14 13 13 13 14 15 16 17 17 18 19 20 22 23 23 23 23 24 25 25 25 26 26 26 26 26 25 25 24 23 23 22 24 24 23 23 21 22 22 21 20 22 25 25 26 25 20 16 13 13 14 18 22 19 22 29 27 26 25 21 22 25 27 26 23 22 24
25 24 24 24 23 23 23 24 23 23 23 22 21 20 19 19 18 17 16 14 14 13 13 12 13 13 13 13 14 14 15 17 18 20 22 22 22 22 22 23 24 25 26 26 26 26 26 26 26 26 25 25 25 25 25 24 24 23 24 23 21 22 23 24 25 26 23 20 18 14 12 13 17 19 17 23 28 26 26 25 20 20 22 23 23 23 24 25
24 24 23 23 23 23 22 22 22 22 22 21 20 19 18 18 17 16 15 14 14 13 13 13 13 13 12 12 11 11 12 15 16 17 19 20 20 21 22 22 23 24 25 26 26 26 27 27 27 27 27 26 25 24 24 24 24 25 24 23 22 22 23 23 24 23 21 21 20 16 14 15 18 19 18 23 28 27 27 24 20 19 21 23 21 21 24 24
24 23 23 22 22 22 22 21 22 21 20 19 19 19 18 17 17 16 15 14 14 14 14 14 13 13 12 11 10 10 10 12 13 14 15 16 17 18 19 20 21 22 23 24 25 25 26 26 27 26 25 25 23 24 25 24 24 24 23 23 20 19 20 21 21 21 21 22 21 19 18 18 20 19 19 24 27 26 26 23 19 18 19 21 21 20 22 23
23 22 22 22 22 21 21 21 20 20 19 19 19 18 17 17 16 16 15 14 14 14 14 14 14 13 12 11 10 9 9 10 11 12 12 13 14 15 16 17 18 19 20 21 22 23 23 24 24 23 24 24 23 24 24 23 23 22 22 21 17 16 18 18 20 21 20 21 21 21 20 20 20 19 21 25 25 25 24 22 20 20 20 19 21 20 20 21
22 22 22 21 21 21 21 20 19 19 18 18 18 18 17 17 16 16 15 15 15 15 15 14 14 13 12 12 10 10 9 9 9 10 11 11 12 12 13 14 15 15 16 17 18 19 20 21 21 22 22 20 20 21 20 18 18 17 18 18 15 15 15 16 19 19 18 20 22 22 20 19 18 17 22 25 25 26 26 25 24 22 20 19 20 19 17 19
21 21 21 21 21 21 21 20 19 18 18 18 18 18 18 17 16 15 15 15 15 15 15 15 14 13 13 12 11 10 10 9 8 9 10 11 11 11 11 12 12 13 14 14 15 16 17 18 19 19 18 17 18 18 16 15 14 14 14 13 12 10 11 16 19 15 14 20 23 23 20 17 17 15 20 25 24 26 27 24 22 19 19 19 18 17 15 17
21 21 20 20 21 20 20 19 18 18 18 19 19 19 18 17 16 16 16 16 16 16 15 15 14 13 13 12 12 12 10 9 9 9 9 10 10 10 10 11 11 12 12 13 14 15 16 16 17 17 16 17 17 15 15 14 13 13 11 8 7 8 12 15 15 10 7 15 23 22 17 13 11 10 16 23 25 27 24 17 16 16 17 17 17 15 15 15
21 20 20 20 20 20 19 19 19 19 19 19 19 20 19 18 17 17 16 16 16 16 16 15 14 14 14 13 12 12 11 10 10 9 9 9 9 10 10 11 11 11 12 13 13 14 14 15 15 16 15 15 14 14 15 13 11 11 8 7 6 9 15 10 9 9 8 14 21 18 13 8 4 6 16 21 25 29 28 23 21 18 17 16 16 15 15 14
20 20 19 19 19 19 19 19 19 19 19 20 20 21 21 20 19 18 17 17 16 16 16 16 15 15 15 14 13 13 12 11 10 10 10 9 9 10 10 11 11 12 12 12 13 13 13 13 14 14 13 13 12 11 12 12 12 11 10 12 8 2 7 7 11 14 14 15 17 10 7 14 14 7 15 20 25 31 33 32 26 20 19 18 16 14 13 13
19 19 19 19 19 19 19 19 19 20 20 20 21 22 22 22 21 20 19 18 17 17 17 16 15 16 15 14 13 12 11 11 11 11 10 10 10 10 10 10 11 11 12 12 12 12 12 12 12 12 11 12 11 10 11 14 15 15 13 12 12 8 2 6 11 15 14 14 15 4 12 19 16 10 15 25 31 33 35 35 30 25 21 18 16 13 12 13
18 19 18 19 19 19 19 19 20 20 21 21 22 23 24 24 23 21 20 19 19 18 17 16 16 17 16 15 13 11 11 11 11 11 11 10 10 10 10 10 10 11 11 11 11 12 11 11 12 12 12 13 14 14 14 15 15 15 13 9 13 11 6 6 9 12 12 13 16 5 9 17 18 17 20 27 33 34 34 33 29 27 22 17 17 15 13 14
18 18 18 18 19 19 19 20 20 21 22 22 23 23 24 25 24 23 21 21 20 19 18 17 17 18 17 16 13 11 13 12 11 11 11 10 11 11 11 11 11 11 11 11 12 12 12 12 11 12 13 14 15 15 14 15 14 13 14 12 13 14 14 14 9 13 16 16 18 11 7 13 13 11 14 21 27 30 32 29 26 26 23 17 15 15 16 16
18 18 19 19 19 19 19 20 21 21 22 23 23 24 25 25 25 24 23 22 21 20 19 18 18 19 18 17 14 12 14 13 12 12 11 11 11 11 11 11 11 11 11 12 11 11 12 13 12 13 14 14 14 13 12 13 13 13 18 19 17 16 18 18 14 20 23 20 19 16 11 15 12 9 12 15 21 26 29 28 24 20 18 15 13 14 16 17
19 19 20 20 20 20 20 21 21 21 22 23 24 24 25 26 25 25 24 23 22 21 20 18 19 19 18 18 15 13 15 15 14 13 12 12 12 12 12 11 12 12 11 11 11 11 12 13 15 16 15 13 14 13 13 15 15 15 21 25 21 17 20 19 15 22 26 21 18 17 15 17 19 18 15 15 19 27 30 29 26 18 16 18 17 15 16 17
19 19 20 21 21 21 20 21 21 22 23 22 23 23 24 25 25 25 24 23 22 21 20 19 19 19 19 19 17 15 16 16 15 14 14 14 14 13 12 12 13 13 12 13 12 11 13 14 16 18 15 14 16 16 15 16 17 17 20 28 26 19 18 17 13 19 23 24 23 19 15 14 16 21 25 26 26 30 33 33 30 24 24 26 23 19 16 17
19 19 20 20 21 21 21 21 21 22 23 23 23 23 24 24 24 24 24 23 22 21 20 20 19 19 19 20 18 17 17 17 16 16 15 15 16 13 12 14 14 13 13 13 13 12 12 15 17 17 15 14 16 17 17 16 17 18 19 25 27 22 20 17 13 17 20 25 27 24 19 15 14 18 23 26 27 30 34 36 33 30 30 30 29 25 20 19
19 19 19 20 21 22 23 23 23 23 23 23 23 24 24 24 24 24 24 23 21 21 21 19 19 19 20 21 20 18 18 17 17 17 15 16 16 14 14 15 13 13 13 12 12 12 11 13 17 17 16 15 14 14 15 17 18 18 19 22 23 22 22 21 18 21 24 27 25 24 24 20 18 22 22 19 21 26 30 31 31 32 30 28 28 26 23 23
19 19 19 20 20 21 22 23 23 24 23 22 22 23 22 23 24 24 24 23 21 21 20 18 17 17 18 20 19 19 18 16 18 20 17 14 15 15 15 14 13 12 12 12 9 9 12 14 17 18 17 17 16 13 14 17 18 20 20 21 22 23 26 26 25 27 28 27 22 21 23 21 19 21 21 20 20 22 24 23 24 26 25 23 23 22 23 24
20 19 20 20 20 21 22 22 23 23 23 22 22 22 21 22 22 23 24 24 21 20 19 17 14 13 16 16 14 15 15 15 18 20 16 11 13 14 11 11 13 10 10 12 8 9 15 17 17 18 18 17 16 14 15 17 18 19 20 21 23 26 29 30 29 29 28 26 22 20 20 21 20 18 17 18 19 19 20 21 22 23 21 20 20 22 24 24
21 21 20 20 21 21 22 23 23 23 23 22 22 22 21 22 22 22 23 22 19 19 17 16 13 12 16 15 10 11 14 15 15 15 12 10 11 10 8 9 12 12 13 14 11 15 18 19 21 22 18 15 14 14 16 18 17 18 20 22 25 26 28 29 29 28 29 28 25 23 22 23 22 19 17 19 20 18 19 22 25 26 23 20 21 22 24 24
22 22 21 21 21 22 22 23 23 23 23 22 22 22 22 22 22 23 24 20 18 17 16 16 14 15 19 18 12 13 15 14 14 15 13 11 10 10 10 11 11 12 16 14 13 19 21 22 26 26 20 15 13 13 15 15 16 19 20 21 24 25 25 25 26 25 27 28 26 23 23 25 24 21 18 19 20 20 23 26 27 26 24 22 23 22 22 23
24 23 22 23 22 22 22 23 24 25 23 22 22 22 22 22 22 23 24 22 19 19 20 19 16 17 20 18 13 14 16 16 16 17 16 13 12 13 13 14 12 12 15 16 16 19 21 23 24 23 21 17 14 15 16 13 15 19 20 20 21 21 20 21 22 23 24 25 23 20 19 22 23 21 18 18 20 23 26 27 26 25 24 25 26 24 24 25
24 24 24 24 23 23 23 23 24 25 25 25 24 23 21 21 22 21 20 20 19 19 21 18 16 17 17 15 13 13 15 16 16 16 17 15 14 14 16 16 14 14 15 17 17 16 18 22 22 18 18 17 15 18 20 19 18 16 16 18 19 18 18 18 19 22 24 23 21 21 21 23 23 20 19 19 20 24 26 26 27 26 23 25 26 24 24 25
24 24 25 25 24 24 23 23 24 24 25 26 26 25 23 22 22 18 15 17 17 16 17 16 16 17 16 15 15 15 15 16 16 15 14 14 12 13 15 17 16 15 16 16 17 16 17 21 20 16 15 15 15 19 20 19 15 12 13 17 18 18 18 19 20 22 23 21 20 21 22 24 23 20 20 21 22 25 25 24 27 26 23 23 24 24 25 24
24 24 24 25 24 24 24 23 24 24 24 25 26 26 26 26 22 16 15 17 15 14 13 12 12 11 11 12 12 14 14 14 15 15 14 13 13 13 14 17 17 15 14 17 18 17 16 16 15 12 12 12 13 18 19 16 13 12 12 14 16 18 19 20 21 22 22 20 20 21 22 23 23 21 21 23 25 27 25 23 26 25 22 22 24 25 26 24
26 25 25 24 24 25 25 24 24 25 25 26 25 26 26 24 19 15 15 15 15 14 13 11 10 9 10 11 10 11 12 12 14 17 16 15 16 15 12 14 17 14 14 17 18 15 13 14 12 11 14 13 10 14 17 18 15 10 7 9 14 18 19 20 20 20 20 19 19 20 21 20 21 22 21 21 23 25 24 22 23 22 20 21 24 25 25 24
27 27 26 25 25 26 26 26 25 26 26 27 26 26 25 21 16 15 16 14 13 11 12 12 11 12 14 15 13 12 12 14 17 17 17 16 17 17 13 13 15 14 16 17 17 15 14 14 11 9 13 13 9 10 13 16 16 13 10 8 10 15 16 17 18 18 19 18 18 18 17 17 18 19 18 17 18 19 21 21 20 20 21 22 24 24 24 22
29 28 27 27 27 28 28 28 27 27 28 28 28 27 24 20 17 16 16 15 12 11 12 15 15 16 17 16 15 14 14 18 20 20 19 17 16 16 14 13 12 12 16 17 15 16 16 16 10 6 9 10 8 8 11 13 15 16 15 11 10 14 16 16 16 16 18 18 18 16 15 16 17 17 17 16 17 17 19 21 21 22 23 23 23 23 24 22
28 28 27 27 28 30 30 29 29 29 29 29 28 25 23 20 18 17 18 18 16 17 18 18 16 17 19 17 16 16 16 18 20 20 20 18 18 17 13 12 13 13 15 16 16 18 19 17 14 11 10 11 11 12 13 14 16 17 16 15 13 13 15 18 17 16 18 19 17 15 15 16 18 20 19 17 19 21 22 23 24 25 24 25 25 24 22 22
25 25 25 27 29 31 30 30 30 30 30 31 28 25 23 20 18 18 19 20 20 19 20 20 17 15 17 19 18 17 17 19 20 19 18 18 20 20 16 15 18 18 17 16 19 21 19 17 17 18 18 13 11 12 13 13 15 15 14 15 14 12 13 16 17 16 17 18 16 15 15 16 17 19 18 16 19 22 24 25 25 24 23 22 21 21 21 21
22 21 21 25 28 29 28 29 32 33 33 32 28 25 23 20 19 19 19 20 21 19 19 21 19 13 11 14 18 19 19 20 19 18 18 19 21 22 19 20 23 25 23 21 20 20 18 18 19 20 21 17 12 10 12 13 13 13 13 14 15 16 17 17 16 15 15 16 17 16 15 17 18 20 20 19 20 21 23 25 24 23 22 19 17 19 20 20
20 19 20 23 24 24 26 30 34 34 33 31 28 26 24 21 21 20 21 23 21 20 20 21 21 19 14 13 17 19 19 18 18 19 20 20 20 21 21 22 24 27 26 24 23 21 20 22 23 23 23 20 14 11 13 15 15 14 14 13 15 18 20 20 18 18 18 19 19 18 18 18 19 20 21 21 22 23 25 28 25 23 23 20 16 17 18 17
22 20 21 21 20 21 26 30 32 32 32 31 29 27 25 23 23 22 24 26 27 28 28 24 23 24 23 21 19 17 18 20 21 21 21 19 17 19 21 20 22 25 25 26 27 25 24 26 25 23 23 21 18 17 18 19 18 16 16 17 19 21 21 20 20 21 22 22 21 21 21 21 21 21 21 21 23 25 27 29 27 23 23 20 17 19 20 20
24 23 23 21 19 19 23 27 28 29 30 30 28 27 26 26 25 24 25 28 29 30 27 25 26 26 26 27 24 22 24 24 23 21 18 18 20 22 22 20 21 25 29 31 30 26 24 24 22 20 20 21 21 23 24 23 20 17 17 19 21 21 19 19 21 22 21 21 21 21 22 22 23 23 23 23 24 25 26 28 27 25 25 23 22 24 26 25
25 25 24 23 20 19 21 24 25 26 27 26 26 27 28 27 27 26 27 30 31 29 25 24 26 27 26 28 28 28 29 27 25 23 19 18 22 24 24 23 24 25 27 29 29 24 21 21 20 20 21 21 22 23 22 20 19 19 19 20 21 22 22 23 24 23 21 22 22 23 23 23 24 25 26 26 26 26 27 27 27 27 27 26 24 26 27 27
25 25 25 24 23 21 21 22 23 25 25 24 25 27 28 29 29 28 29 31 32 31 29 26 23 23 26 29 30 32 33 30 28 27 26 24 24 23 23 24 25 25 25 26 26 24 22 23 24 24 24 23 22 22 20 18 19 22 23 23 25 27 28 29 29 28 28 29 28 28 28 28 27 27 28 28 29 29 28 28 28 27 28 27 25 25 27 29
25 26 26 26 25 24 23 22 22 23 23 24 26 27 30 31 31 30 30 31 32 34 35 32 27 26 28 30 31 32 34 34 32 31 30 29 27 26 24 26 27 26 27 28 28 26 25 26 26 25 26 25 23 23 23 22 22 25 27 28 29 29 28 29 29 29 31 33 33 32 32 31 30 30 30 30 31 31 30 30 30 29 28 27 26 26 26 28
26 27 28 28 26 25 25 25 24 23 24 24 25 25 28 30 31 31 31 31 32 34 35 36 36 33 31 32 33 32 32 34 35 35 34 32 30 29 30 35 35 33 32 32 32 31 29 29 28 27 28 27 26 25 25 25 24 26 28 30 31 30 29 29 29 27 28 30 30 30 30 29 30 32 33 31 31 30 29 29 29 29 29 28 28 27 26 27
25 27 27 27 26 24 26 27 27 27 27 26 26 27 28 29 30 30 30 31 34 33 32 35 38 36 32 33 35 34 32 33 35 35 35 34 31 28 31 38 42 42 40 38 37 35 33 32 32 31 31 31 30 30 29 28 28 28 29 31 32 33 33 34 33 32 31 32 31 31 30 29 30 32 33 33 33 33 32 31 31 32 33 33 32 32 31 32
24 24 25 26 26 25 26 26 27 28 27 26 26 26 26 28 29 28 28 30 33 33 33 36 39 37 36 38 39 36 33 32 35 37 36 35 33 32 34 38 42 45 45 42 39 38 36 36 35 35 36 36 36 36 35 35 34 33 34 35 36 37 38 38 38 37 38 39 39 37 35 35 35 34 32 33 35 36 37 39 39 39 39 39 39 39 39 39
24 23 23 24 26 26 26 26 26 27 26 25 25 24 24 25 27 28 29 30 31 33 34 37 38 37 39 41 41 39 38 37 40 42 40 37 36 36 37 39 42 45 45 44 43 41 39 39 39 39 40 41 41 40 40 39 39 39 39 40 41 41 41 41 41 41 43 44 44 43 42 42 42 41 37 37 39 40 41 42 42 42 41 41 41 42 42 42
24 23 23 23 25 26 28 28 28 28 28 28 29 28 27 27 27 28 30 32 34 35 36 38 38 36 36 37 36 37 40 42 43 43 42 39 38 38 39 40 43 45 46 46 47 46 43 42 42 41 40 39 39 39 39 40 42 44 44 45 46 46 45 45 46 45 46 46 47 47 47 47 48 47 44 43 44 45 45 45 46 47 47 47 47 45 44 44
24 24 23 22 23 26 29 29 29 30 31 32 32 32 31 31 31 31 32 34 38 40 39 39 39 37 36 34 33 35 38 41 41 41 40 38 37 39 40 40 42 45 46 46 48 49 48 46 45 43 42 41 39 38 38 40 42 43 43 44 45 46 46 47 48 48 49 49 49 49 48 49 50 50 49 48 47 46 47 47 47 49 50 51 51 51 50 50
21 22 23 23 24 26 29 29 29 30 32 32 33 33 33 34 34 34 34 35 38 41 41 38 37 38 36 34 33 34 36 37 37 37 36 35 36 37 39 41 43 43 44 45 46 47 48 47 45 44 45 44 42 39 39 40 40 39 38 38 40 41 43 45 46 47 48 49 49 47 47 48 49 48 48 49 48 48 49 50 50 50 50 51 51 52 53 53
Wind_Direction
252 251 251 251 250 250 250 251 251 251 252 253 254 255 255 254 256 256 257 258 259 260 260 260 260 259 259 259 259 258 257 257 256 256 255 255 254 253 253 251 249 248 247 247 247 245 246 246 247 249 250 251 251 252 251 251 252 252 255 257 257 254 253 246 236 206 172 217 257 244 241 243 243 246 252 256 263 271 276 274 268 265 263 260 261 261 263 265
252 252 251 251 251 251 251 251 251 251 251 253 254 255 255 255 257 258 259 260 262 263 263 263 262 262 261 260 260 259 258 258 257 256 255 254 253 253 252 251 248 246 245 245 244 243 243 243 244 245 246 247 247 250 250 250 251 252 254 254 254 251 243 235 222 184 176 215 245 240 239 243 246 249 255 259 264 272 279 279 270 264 261 259 260 260 263 265
252 252 252 252 251 251 251 251 251 251 251 252 254 254 255 255 257 258 260 262 265 266 265 265 263 263 261 260 260 259 258 257 256 255 254 252 252 252 251 250 248 244 243 242 242 241 241 241 242 243 244 245 245 248 249 249 250 252 254 254 250 237 230 213 186 185 206 220 234 246 251 254 257 256 259 263 261 269 283 283 271 261 261 261 261 261 261 262
254 254 254 253 253 252 252 252 252 251 252 252 254 254 254 255 256 258 261 264 267 267 266 265 263 262 261 260 259 258 257 256 254 253 252 251 249 249 249 249 247 245 242 240 240 239 239 239 240 242 242 244 244 246 248 251 251 248 251 252 241 228 226 208 187 191 217 229 234 240 256 268 266 266 271 273 269 272 277 275 272 267 267 266 264 260 257 260
256 256 256 255 254 253 252 252 252 252 252 253 254 254 254 255 256 258 263 267 268 267 266 265 263 262 261 260 259 258 257 255 254 252 249 248 247 246 247 247 247 245 241 239 238 237 237 237 239 240 241 243 243 245 249 252 251 247 245 245 240 233 232 224 213 216 225 235 244 243 254 268 264 264 269 275 279 278 276 273 276 276 273 270 267 266 262 264
257 257 257 256 255 254 252 252 252 252 253 254 255 255 255 254 256 260 265 267 266 266 266 266 265 265 264 261 260 258 256 255 254 252 249 246 245 245 246 246 246 244 240 239 238 236 236 236 238 239 240 242 243 245 247 249 251 249 246 243 242 240 241 241 239 247 250 252 257 258 265 266 260 257 263 276 279 276 278 275 274 273 273 273 273 276 273 271
259 259 258 258 256 254 253 252 252 253 254 255 254 254 254 254 258 263 265 265 264 266 267 268 269 269 267 265 262 259 256 254 252 251 250 247 246 245 246 246 245 242 240 239 237 236 236 236 238 238 239 241 243 245 246 248 249 249 249 244 242 241 243 246 243 249 261 267 264 262 263 258 255 257 266 275 269 271 276 273 270 270 272 274 276 281 276 271
260 260 259 259 257 255 254 253 252 253 253 254 253 253 253 256 260 263 263 262 262 264 267 271 273 273 271 268 264 261 258 253 250 249 247 245 244 244 245 245 244 242 240 239 238 237 238 238 238 238 239 240 241 243 244 246 248 248 249 246 244 242 241 245 250 256 266 275 271 259 249 248 253 258 264 264 264 272 275 271 269 270 274 274 275 277 273 268
262 261 260 259 258 256 254 253 253 252 253 252 252 252 253 257 260 261 259 258 260 263 267 272 274 275 274 271 269 264 260 255 249 247 245 243 242 242 242 242 241 241 240 240 239 239 238 238 237 236 236 237 238 241 245 247 249 249 249 250 248 245 244 245 250 259 268 275 273 265 255 254 256 258 259 258 265 271 270 272 275 277 278 276 274 273 271 267
263 262 261 259 258 256 254 253 252 251 251 250 250 251 253 257 258 257 256 256 258 262 266 270 272 274 273 273 272 267 262 258 253 248 246 243 241 240 240 240 239 239 239 239 239 238 237 237 236 235 236 239 241 244 248 251 252 253 252 253 250 247 248 248 251 259 267 268 267 268 267 264 259 257 256 256 263 267 270 276 280 280 277 277 275 271 272 268
263 262 261 259 257 255 253 252 250 249 248 247 248 250 252 254 255 255 254 255 258 261 265 267 269 270 271 271 271 271 265 261 257 252 248 245 243 242 240 240 239 239 238 238 237 237 237 237 237 237 239 241 243 245 247 249 252 254 254 252 252 250 249 252 257 259 259 260 262 264 262 260 259 259 257 256 261 267 274 278 277 277 276 278 276 271 273 268
262 262 261 259 256 253 251 250 248 246 245 246 247 248 250 252 254 254 254 256 258 261 263 264 266 266 267 268 268 271 265 261 259 256 251 246 244 243 241 240 239 238 238 238 237 236 236 236 236 236 237 239 242 245 247 250 252 254 256 257 258 254 250 253 257 257 257 260 262 261 257 258 263 266 263 261 266 272 275 277 273 273 274 276 276 274 274 270
261 260 259 257 255 253 250 248 245 243 243 244 245 246 248 251 253 254 255 256 258 260 261 261 263 263 265 266 267 268 265 262 258 256 251 246 243 241 241 239 238 238 237 238 238 238 236 235 235 235 237 241 244 248 251 253 255 257 258 259 260 257 256 253 251 254 258 260 261 258 256 260 264 265 265 266 271 274 273 276 276 274 273 270 270 273 273 270
258 257 256 255 254 252 249 246 243 242 243 243 243 244 248 251 253 254 255 256 257 258 259 259 260 261 263 264 264 264 265 266 262 258 252 247 243 240 239 237 237 237 236 237 236 235 235 233 232 234 236 236 237 242 246 248 249 251 251 255 259 255 252 249 247 246 249 256 258 256 256 261 264 262 267 271 271 272 275 277 278 272 268 266 264 268 269 267
256 254 253 253 253 251 248 244 242 243 243 242 242 244 247 251 253 254 255 256 257 258 258 258 258 259 261 261 263 263 264 266 263 262 256 251 247 243 242 239 237 236 233 234 233 232 232 231 230 230 230 232 236 237 237 241 241 243 245 243 241 223 226 244 254 248 246 259 257 255 257 262 270 260 262 272 274 276 275 269 269 265 260 261 260 262 263 264
254 252 251 251 250 249 247 245 244 244 244 242 241 243 246 249 251 252 254 256 258 259 259 259 258 258 260 261 263 263 263 263 263 263 260 256 252 247 243 240 238 237 235 234 234 234 233 231 230 229 230 231 235 235 235 237 233 235 223 182 178 213 230 258 301 298 301 284 270 271 267 233 167 208 245 266 277 277 273 268 268 261 252 253 255 258 262 263
252 251 250 249 249 248 247 246 245 245 245 243 241 241 244 247 249 251 254 256 258 260 259 259 259 258 259 260 261 263 265 264 262 260 259 257 253 249 244 241 239 236 237 236 236 236 234 233 231 231 232 230 231 236 238 226 208 209 189 158 142 205 256 296 323 308 303 293 282 282 214 176 147 176 245 252 259 264 267 272 274 264 256 258 260 260 260 259
251 250 250 249 249 248 247 246 246 246 245 243 241 241 243 246 248 251 254 257 259 260 259 260 260 258 259 260 262 267 267 263 260 257 255 254 252 251 247 243 241 238 238 237 237 237 235 235 234 232 230 224 217 204 210 215 209 210 200 162 132 111 43 306 299 288 286 291 289 270 161 178 171 180 231 240 246 255 263 273 279 277 272 269 270 266 261 262
252 251 250 250 249 249 248 247 247 246 245 243 241 241 243 245 248 251 254 256 258 259 260 260 260 260 260 260 263 267 266 262 261 258 255 253 251 252 251 248 244 241 239 238 237 236 234 233 233 230 223 221 219 208 209 224 227 218 211 174 141 146 178 236 278 272 256 268 274 250 166 202 204 188 209 234 246 256 266 276 282 280 276 270 268 263 259 265
254 253 252 251 251 250 249 248 247 246 246 244 242 242 243 245 247 250 252 254 257 259 261 261 260 260 260 260 260 261 262 263 261 258 256 254 252 251 251 250 247 244 241 239 237 236 237 233 232 236 232 228 230 233 230 232 234 211 193 187 175 177 190 197 229 248 238 246 251 243 192 206 218 214 231 252 262 268 270 275 279 277 277 272 265 264 263 263
257 255 254 253 252 252 250 249 248 246 246 244 243 242 242 244 246 247 250 253 256 258 259 260 261 261 262 261 259 256 259 260 258 257 256 254 251 250 249 248 248 245 240 239 239 237 238 232 228 234 236 235 235 239 233 217 219 203 187 197 198 182 183 194 223 241 240 242 244 241 200 178 189 225 256 268 271 274 270 272 278 279 282 279 272 274 269 264
259 257 256 255 254 254 253 251 250 248 246 244 243 243 243 245 246 247 249 251 254 256 258 259 260 261 262 262 258 255 257 258 257 256 254 253 251 249 248 248 247 246 244 243 238 232 234 231 231 234 231 232 237 238 231 214 214 208 191 196 201 188 183 192 218 240 245 248 243 238 215 194 193 198 217 238 254 265 267 272 277 279 287 287 280 273 263 261
261 259 257 255 254 254 254 253 251 250 247 246 245 245 246 246 247 249 250 251 253 255 258 258 259 261 263 264 260 256 257 257 258 256 252 251 250 248 247 246 246 246 244 243 239 231 233 231 230 239 238 232 235 236 230 221 220 218 201 196 203 206 195 194 222 242 251 256 250 245 240 227 209 200 209 222 239 257 263 267 273 280 289 288 283 276 267 263
262 261 259 257 255 253 253 252 251 249 247 246 246 246 247 248 249 251 251 252 253 255 257 258 260 262 263 263 261 259 259 258 256 254 252 251 251 248 244 244 245 248 248 248 246 234 232 238 235 239 242 235 236 237 231 225 221 222 215 205 206 213 202 196 229 245 248 254 251 251 250 236 226 225 226 227 234 244 254 260 265 273 281 282 281 282 280 276
262 261 260 259 258 255 253 251 250 249 248 247 247 247 249 250 251 252 253 253 253 254 256 258 261 262 261 261 260 260 259 259 256 251 247 249 251 243 236 240 244 249 250 246 246 234 223 241 250 247 245 237 234 233 226 224 223 221 223 216 209 211 204 199 219 236 241 246 249 254 253 243 235 239 242 244 239 241 249 253 255 262 269 272 276 280 281 278
263 263 260 258 256 255 253 250 249 249 249 248 247 248 249 250 250 251 252 252 253 256 257 259 259 260 260 258 257 256 254 254 255 252 247 243 243 235 231 240 240 237 246 249 248 244 240 247 252 251 250 245 238 234 229 227 225 222 222 222 216 210 209 210 219 231 240 245 247 251 249 242 235 232 236 242 241 245 254 255 257 263 264 265 271 277 277 275
264 263 261 258 254 252 251 249 248 248 247 245 246 247 247 248 249 250 252 252 253 255 258 260 257 257 258 254 252 251 244 244 250 255 255 239 231 234 233 241 236 222 240 258 244 223 242 255 257 253 250 248 244 236 233 229 227 228 226 226 226 221 218 222 227 234 242 247 249 250 244 237 237 238 242 248 250 254 263 267 270 270 266 265 270 275 275 274
262 262 261 259 254 251 249 248 247 246 246 245 245 246 246 247 248 249 251 253 254 254 256 258 251 245 251 248 244 246 243 243 249 256 252 231 232 243 235 230 230 223 232 246 226 207 222 239 248 254 251 249 251 239 235 236 230 230 229 227 232 234 232 233 235 239 243 246 249 250 250 248 248 248 248 251 255 253 251 257 263 265 265 266 270 269 265 266
261 261 260 259 257 254 251 250 249 248 248 249 248 248 248 249 249 250 252 254 256 256 254 253 244 237 247 250 246 249 249 246 249 252 240 221 233 240 230 232 239 241 246 245 217 206 217 230 242 258 263 255 252 236 231 239 238 235 234 233 236 239 242 245 244 245 246 249 251 252 254 259 260 257 250 245 247 242 238 246 255 261 263 264 265 260 256 262
260 260 259 258 257 255 253 252 252 251 250 250 250 251 251 251 251 251 253 253 254 254 253 252 243 237 246 251 244 241 246 243 244 250 245 233 235 232 229 239 246 248 252 248 228 219 228 237 242 253 257 248 239 230 223 226 237 241 241 243 243 243 246 247 245 244 246 248 252 253 253 257 259 258 252 242 239 239 240 243 249 255 258 259 258 255 257 263
259 259 258 257 257 256 255 252 252 252 251 250 250 250 251 251 250 250 253 253 252 253 254 251 245 242 244 245 238 233 239 241 238 241 246 243 236 231 234 240 243 242 242 246 250 246 239 242 245 245 248 249 241 237 238 241 244 243 243 247 248 245 243 240 236 239 243 246 249 250 249 251 253 253 250 242 236 239 243 244 247 250 250 250 252 255 261 267
260 258 257 256 256 255 254 252 252 252 250 250 249 249 249 249 249 249 249 250 248 250 253 246 240 244 248 248 243 236 234 237 237 236 241 244 237 231 235 239 242 241 238 239 248 250 239 242 253 255 252 252 240 235 242 249 253 248 244 248 248 244 241 237 237 240 244 246 248 249 250 252 252 248 245 242 237 240 243 241 242 245 244 245 250 256 266 272
259 258 257 257 256 255 254 252 251 251 249 249 249 248 248 247 248 246 242 244 244 244 250 240 226 235 249 248 242 237 231 227 228 224 226 243 254 246 231 233 239 237 233 234 237 244 246 246 255 261 257 252 238 235 238 236 240 249 255 256 253 247 243 241 242 245 247 248 248 250 251 251 248 245 244 243 239 238 238 235 235 241 246 252 255 257 264 271
258 257 257 257 256 255 254 251 250 250 249 249 248 247 247 246 245 241 238 243 243 241 247 235 208 210 230 233 230 231 226 219 219 217 218 234 249 251 234 227 236 231 220 226 233 240 245 243 243 245 244 243 236 235 232 224 223 234 254 267 269 262 252 249 249 250 251 250 250 251 251 248 243 241 244 244 242 240 237 234 235 243 251 255 257 259 263 268
258 256 255 255 254 254 253 252 249 249 248 249 249 248 248 246 241 233 232 237 236 243 268 261 222 201 212 223 229 231 225 227 229 223 223 230 235 244 247 235 235 231 222 225 232 236 238 238 238 236 233 230 231 230 216 211 216 225 232 243 271 272 260 253 252 250 249 248 248 249 250 251 247 243 246 247 245 242 242 241 239 244 249 251 255 259 264 270
259 257 254 253 253 253 252 251 250 249 250 250 250 249 248 245 238 230 228 226 214 216 247 255 236 211 207 213 220 225 224 230 235 229 225 229 233 243 252 248 243 238 235 236 232 231 233 229 221 230 245 234 217 205 190 194 215 227 228 221 238 260 263 260 256 249 246 245 246 251 255 259 259 259 263 264 256 250 251 251 246 247 253 258 262 265 269 273
262 258 255 252 250 250 250 251 251 250 251 251 250 249 246 244 238 231 227 221 212 213 221 234 243 229 216 208 206 212 216 223 234 234 227 224 228 233 234 244 259 254 242 236 227 227 231 227 214 201 220 240 235 216 203 212 232 235 226 220 229 250 263 264 260 253 251 251 252 255 256 256 260 262 266 268 263 259 258 255 253 255 262 267 268 267 268 267
265 262 258 252 249 248 249 251 251 250 249 250 249 248 246 244 239 234 232 228 227 229 223 225 240 240 224 213 205 206 215 222 229 231 229 226 228 228 216 220 246 249 237 227 223 228 232 230 223 203 197 216 235 229 223 229 245 245 226 220 229 240 249 256 257 256 257 259 258 256 253 252 254 257 258 259 257 256 256 255 256 259 262 263 261 257 257 258
269 268 263 255 250 248 248 249 249 247 247 249 250 250 247 244 238 232 229 231 237 246 238 228 232 237 237 229 214 209 216 223 227 227 230 233 233 232 217 209 226 234 231 231 232 237 238 227 222 214 207 210 215 228 243 243 245 243 225 219 231 240 242 247 253 255 255 257 257 252 247 246 247 250 252 252 250 250 254 259 261 261 264 263 253 249 252 255
271 272 268 261 255 249 244 244 246 247 248 249 249 248 245 240 236 229 224 224 229 240 239 230 226 221 221 232 224 217 218 220 224 227 230 233 234 236 227 216 224 231 231 238 239 239 243 237 229 226 227 230 228 231 243 244 243 241 231 227 237 244 247 249 249 251 253 254 256 255 250 247 245 245 246 248 251 253 257 261 260 262 269 267 251 248 251 252
268 267 265 265 261 252 245 244 246 247 248 247 246 245 242 237 232 227 226 225 225 231 232 228 228 223 217 221 219 220 228 224 220 225 228 227 224 229 234 228 230 236 236 241 243 238 241 245 242 239 240 241 238 231 227 232 240 244 239 236 238 242 248 251 248 248 251 252 254 255 255 254 254 254 252 252 253 254 258 261 260 261 269 267 257 257 257 255
263 261 263 266 264 256 249 246 247 247 247 246 245 243 241 237 233 227 227 230 231 236 238 232 232 233 232 232 226 224 232 230 224 227 234 239 232 226 229 225 222 233 239 241 245 243 242 247 250 250 248 245 243 241 240 242 248 254 251 244 243 247 253 257 255 251 250 250 252 256 256 256 257 259 259 259 258 256 258 263 264 265 268 267 265 266 262 259
260 258 258 260 260 257 253 250 248 248 247 245 243 242 239 237 234 228 225 230 232 236 243 239 233 233 235 236 231 225 229 232 229 226 224 239 247 237 230 225 218 223 232 239 245 245 243 246 250 250 248 245 245 248 250 251 250 250 252 251 249 249 253 258 260 258 255 256 259 262 263 262 261 263 264 266 268 267 266 267 267 268 269 267 266 264 263 264
257 255 253 252 252 251 251 250 248 246 244 240 237 236 235 234 232 229 227 231 231 231 238 242 234 227 228 231 231 227 227 230 231 226 216 222 238 237 229 230 228 225 229 236 243 247 249 251 250 249 248 246 245 248 248 243 239 240 245 249 249 250 254 258 260 260 259 259 261 263 264 264 264 264 265 267 269 268 268 269 268 269 269 266 263 262 263 268
254 251 250 248 246 245 246 246 246 245 242 240 237 235 234 232 231 229 229 233 234 231 233 236 231 224 225 229 231 229 229 230 232 231 227 228 238 243 238 237 238 238 240 243 246 247 250 253 251 249 248 246 246 250 251 246 242 243 245 248 252 255 257 259 259 260 259 258 261 261 260 262 263 262 262 266 268 269 270 270 269 268 267 265 264 265 268 271
252 250 250 250 248 245 244 244 243 242 241 240 239 238 237 235 232 232 232 234 237 235 233 235 236 232 228 230 234 234 234 234 235 237 238 239 242 248 251 251 250 249 250 250 251 252 250 251 252 253 254 252 249 251 255 254 251 250 251 255 258 258 258 259 261 262 261 262 263 260 258 260 261 261 263 266 267 268 269 268 267 265 264 266 270 271 271 271
252 250 251 252 250 245 242 243 243 241 240 238 237 235 234 233 231 232 233 233 237 239 237 236 238 236 232 233 238 240 239 240 241 242 244 244 241 241 249 255 256 255 253 251 253 256 257 257 258 259 259 259 257 253 252 252 251 249 250 255 258 259 259 262 264 264 263 265 265 261 260 262 260 259 263 265 264 264 263 262 263 263 264 267 271 272 273 274
253 250 248 246 246 243 240 241 242 243 243 243 243 241 240 238 234 231 231 233 237 240 239 239 241 239 237 238 241 242 240 241 244 244 245 248 247 245 249 255 258 259 260 259 258 257 259 261 262 261 261 260 260 259 256 254 253 251 251 253 255 257 259 262 265 265 265 266 265 263 263 264 261 259 260 262 265 266 265 265 266 267 269 270 271 273 276 278
253 249 246 243 242 240 238 236 236 239 240 240 241 242 240 239 236 233 233 236 239 239 239 243 244 242 242 243 245 246 243 242 243 243 242 245 248 251 254 257 260 263 264 267 265 260 259 261 261 262 264 263 262 262 263 262 259 256 254 254 254 256 258 260 261 261 263 266 267 266 266 266 264 261 258 259 263 266 267 269 269 269 270 271 271 274 276 275
250 248 245 243 240 238 236 233 230 232 234 235 235 236 236 236 234 233 233 236 238 238 238 241 243 244 246 248 248 249 248 247 248 247 245 244 246 250 254 257 260 263 265 267 266 264 264 266 265 264 265 265 265 265 265 263 261 259 257 255 255 256 257 260 261 261 262 264 266 267 267 267 265 263 262 262 262 265 266 267 267 268 269 270 271 272 271 269
245 245 243 241 239 237 237 235 231 231 233 235 235 234 235 236 234 232 232 234 236 237 236 238 241 244 246 247 247 249 250 251 253 254 253 251 250 251 254 255 257 260 263 266 267 266 267 269 270 269 267 267 268 268 266 264 264 264 262 260 259 259 259 260 261 262 262 262 263 265 266 266 264 264 265 265 263 264 264 262 262 264 267 270 271 271 269 269
241 241 240 238 237 237 239 238 237 236 235 236 238 237 237 238 238 237 237 237 238 240 241 241 244 247 249 248 248 249 252 255 256 257 258 256 254 254 255 255 255 257 261 264 265 266 267 269 270 270 269 269 268 266 265 265 265 265 264 262 261 260 260 259 260 260 261 261 262 264 266 266 267 268 268 267 264 263 262 262 262 263 265 269 271 271 270 269
Height
5754 5754 5755 5755 5756 5756 5757 5757 5758 5759 5759 5760 5760 5761 5761 5762 5762 5763 5763 5764 5764 5765 5765 5765 5766 5766 5766 5767 5767 5768 5769 5770 5770 5771 5772 5773 5773 5774 5775 5776 5777 5778 5779 5779 5780 5781 5782 5782 5783 5784 5784 5785 5785 5786 5786 5787 5787 5787 5788 5789 5790 5792 5793 5795 5796 5798 5800 5801 5800 5799 5800 5799 5798 5796 5797 5799 5799 5800 5798 5798 5801 5802 5803 5804 5804 5805 5805 5806
5752 5752 5753 5753 5754 5754 5755 5755 5756 5756 5757 5758 5758 5758 5759 5759 5760 5760 5761 5761 5762 5762 5762 5763 5763 5763 5764 5764 5765 5765 5766 5767 5767 5768 5769 5770 5770 5771 5772 5773 5774 5775 5776 5777 5778 5779 5779 5780 5781 5782 5782 5783 5783 5783 5784 5784 5785 5785 5786 5787 5789 5791 5792 5793 5796 5797 5796 5796 5795 5795 5795 5795 5796 5796 5797 5799 5798 5797 5796 5796 5799 5799 5800 5801 5801 5803 5804 5804
5749 5750 5750 5751 5751 5752 5752 5753 5754 5754 5755 5755 5756 5756 5757 5757 5758 5758 5759 5759 5759 5760 5760 5760 5760 5761 5761 5762 5762 5763 5763 5764 5764 5765 5766 5767 5768 5769 5770 5770 5771 5772 5773 5774 5775 5776 5777 5778 5779 5779 5780 5781 5781 5781 5782 5782 5783 5784 5784 5785 5788 5789 5789 5791 5793 5794 5792 5791 5791 5791 5793 5793 5793 5796 5797 5797 5797 5798 5795 5793 5796 5796 5797 5798 5799 5801 5802 5802
5747 5748 5748 5749 5749 5750 5750 5751 5751 5752 5752 5753 5754 5754 5755 5755 5756 5756 5757 5757 5757 5757 5757 5758 5758 5758 5759 5759 5759 5760 5761 5761 5761 5762 5763 5764 5765 5766 5767 5768 5768 5769 5771 5772 5773 5774 5775 5776 5776 5777 5778 5779 5779 5779 5780 5780 5781 5782 5782 5784 5786 5786 5787 5788 5787 5786 5785 5785 5788 5790 5793 5792 5790 5794 5794 5794 5796 5796 5793 5791 5792 5794 5795 5796 5796 5799 5800 5800
5745 5745 5746 5746 5747 5747 5748 5748 5749 5749 5750 5751 5751 5752 5752 5753 5754 5754 5754 5755 5755 5755 5755 5755 5755 5756 5756 5757 5757 5758 5758 5758 5758 5759 5760 5761 5762 5763 5764 5765 5766 5767 5768 5769 5770 5771 5772 5773 5774 5775 5776 5776 5777 5778 5778 5779 5779 5780 5781 5782 5783 5784 5784 5785 5784 5782 5782 5782 5786 5789 5792 5791 5790 5792 5790 5790 5792 5790 5790 5791 5791 5792 5793 5793 5793 5796 5798 5798
5742 5743 5743 5744 5744 5745 5745 5746 5746 5747 5748 5748 5749 5749 5750 5751 5751 5752 5752 5752 5753 5753 5753 5753 5753 5753 5754 5754 5755 5755 5756 5755 5756 5756 5757 5758 5759 5760 5761 5762 5763 5765 5766 5767 5768 5769 5770 5771 5772 5773 5774 5774 5775 5776 5776 5776 5777 5777 5779 5780 5781 5782 5782 5783 5784 5783 5782 5783 5786 5788 5790 5790 5789 5790 5788 5788 5788 5786 5787 5790 5790 5790 5790 5790 5792 5794 5796 5796
5740 5740 5741 5741 5742 5742 5743 5743 5744 5745 5745 5746 5747 5747 5748 5749 5749 5750 5750 5750 5750 5750 5751 5751 5751 5751 5752 5752 5752 5753 5753 5753 5753 5754 5755 5756 5757 5758 5759 5760 5761 5762 5763 5764 5765 5766 5767 5769 5770 5771 5772 5772 5773 5774 5774 5774 5775 5775 5777 5778 5779 5780 5780 5780 5781 5781 5780 5782 5785 5787 5788 5788 5788 5787 5788 5787 5784 5783 5784 5787 5788 5788 5788 5788 5790 5792 5793 5793
5737 5738 5738 5739 5739 5740 5740 5741 5742 5742 5743 5744 5744 5745 5746 5746 5747 5747 5748 5748 5748 5748 5749 5749 5749 5749 5750 5750 5750 5751 5751 5751 5751 5752 5752 5754 5755 5756 5756 5757 5759 5759 5760 5762 5763 5764 5765 5766 5767 5768 5769 5770 5771 5770 5771 5772 5772 5774 5775 5775 5776 5778 5778 5778 5778 5779 5779 5780 5782 5784 5785 5786 5786 5785 5786 5784 5780 5780 5782 5784 5787 5787 5787 5787 5788 5790 5790 5791
5735 5735 5736 5736 5737 5737 5738 5739 5739 5740 5741 5741 5742 5743 5744 5744 5745 5745 5746 5746 5746 5747 5747 5747 5748 5748 5748 5748 5748 5749 5748 5748 5749 5749 5750 5751 5752 5753 5754 5755 5756 5757 5758 5759 5760 5762 5762 5763 5764 5765 5766 5767 5767 5768 5768 5770 5770 5771 5772 5773 5774 5775 5776 5776 5776 5776 5777 5778 5779 5781 5782 5784 5783 5783 5784 5781 5777 5778 5779 5781 5785 5786 5786 5785 5786 5788 5788 5788
5733 5733 5733 5734 5734 5735 5735 5736 5737 5738 5738 5739 5740 5740 5741 5742 5743 5743 5744 5744 5744 5745 5745 5746 5746 5746 5747 5747 5747 5747 5746 5746 5747 5747 5748 5749 5750 5751 5752 5753 5754 5755 5756 5757 5758 5759 5759 5760 5762 5763 5763 5764 5765 5766 5767 5767 5768 5768 5769 5770 5771 5772 5773 5773 5774 5774 5775 5776 5776 5778 5779 5780 5780 5780 5781 5778 5775 5776 5778 5780 5783 5784 5784 5784 5785 5786 5785 5786
5730 5731 5731 5732 5732 5733 5733 5734 5734 5735 5736 5737 5737 5738 5739 5740 5740 5741 5741 5742 5742 5743 5743 5744 5744 5745 5745 5745 5745 5745 5745 5745 5745 5745 5746 5747 5748 5749 5750 5750 5751 5752 5753 5754 5755 5756 5757 5758 5759 5760 5761 5762 5763 5764 5764 5765 5765 5766 5766 5767 5768 5769 5770 5771 5772 5772 5773 5774 5774 5776 5777 5777 5777 5778 5778 5775 5775 5776 5777 5779 5781 5782 5782 5782 5783 5783 5783 5783
5728 5728 5729 5729 5730 5730 5731 5731 5732 5733 5734 5734 5735 5736 5737 5738 5738 5739 5739 5740 5740 5741 5741 5742 5742 5743 5743 5743 5744 5743 5744 5744 5743 5744 5744 5745 5746 5747 5748 5748 5749 5750 5751 5752 5753 5754 5755 5756 5757 5758 5759 5760 5761 5761 5761 5762 5763 5763 5763 5764 5766 5767 5768 5769 5769 5769 5771 5772 5772 5773 5774 5775 5775 5776 5774 5773 5775 5776 5776 5778 5779 5780 5781 5781 5781 5781 5781 5780
5725 5726 5726 5727 5727 5728 5729 5729 5730 5731 5731 5732 5733 5734 5735 5735 5736 5737 5737 5738 5738 5739 5739 5740 5741 5741 5742 5742 5742 5742 5742 5742 5742 5743 5743 5744 5744 5745 5746 5746 5747 5748 5749 5750 5750 5751 5752 5753 5754 5755 5756 5758 5759 5759 5760 5761 5761 5761 5761 5762 5764 5764 5766 5766 5766 5767 5769 5769 5769 5770 5772 5773 5774 5773 5771 5771 5773 5774 5774 5775 5776 5777 5778 5779 5778 5778 5779 5778
5723 5723 5724 5724 5725 5726 5726 5727 5728 5728 5729 5730 5731 5732 5732 5733 5734 5735 5735 5736 5736 5737 5737 5738 5739 5739 5740 5740 5740 5740 5741 5741 5741 5741 5742 5742 5743 5743 5744 5745 5745 5746 5747 5748 5748 5749 5750 5751 5752 5753 5754 5755 5756 5756 5758 5758 5759 5759 5760 5761 5762 5763 5763 5762 5763 5766 5767 5766 5766 5767 5770 5772 5772 5771 5769 5769 5770 5771 5772 5773 5774 5775 5775 5776 5776 5777 5777 5777
5721 5721 5722 5722 5723 5723 5724 5725 5725 5726 5727 5728 5729 5729 5730 5731 5732 5733 5733 5734 5734 5735 5735 5736 5737 5737 5738 5738 5738 5739 5739 5739 5740 5740 5740 5741 5741 5742 5742 5743 5743 5744 5745 5745 5746 5747 5748 5749 5750 5751 5752 5752 5753 5754 5755 5755 5756 5757 5758 5760 5760 5760 5760 5760 5762 5764 5765 5764 5763 5765 5769 5770 5770 5770 5767 5767 5767 5767 5770 5772 5773 5774 5774 5775 5775 5776 5776 5776
5718 5719 5719 5720 5720 5721 5722 5723 5723 5724 5724 5725 5726 5727 5728 5729 5730 5730 5731 5732 5732 5733 5733 5734 5735 5735 5736 5736 5736 5737 5737 5738 5738 5738 5739 5739 5739 5740 5741 5741 5742 5742 5743 5744 5744 5745 5746 5747 5748 5748 5749 5750 5751 5752 5752 5754 5755 5755 5756 5758 5759 5759 5758 5758 5759 5761 5763 5762 5761 5763 5767 5768 5768 5768 5766 5766 5766 5764 5766 5769 5771 5773 5772 5773 5774 5775 5775 5775
5716 5716 5717 5717 5718 5719 5720 5720 5721 5721 5722 5723 5724 5725 5726 5727 5727 5728 5729 5730 5730 5731 5731 5732 5733 5733 5734 5734 5734 5735 5736 5736 5736 5737 5737 5737 5738 5738 5739 5739 5740 5740 5741 5742 5743 5743 5744 5745 5746 5747 5747 5748 5749 5750 5751 5751 5752 5753 5754 5756 5757 5757 5756 5757 5758 5760 5762 5762 5761 5763 5764 5766 5766 5766 5766 5765 5764 5763 5763 5765 5768 5769 5769 5770 5771 5772 5773 5773
5714 5714 5715 5715 5716 5717 5717 5718 5719 5719 5720 5721 5722 5723 5723 5724 5725 5726 5727 5728 5728 5729 5729 5730 5731 5731 5731 5732 5733 5733 5734 5734 5734 5735 5735 5736 5736 5736 5737 5737 5738 5739 5739 5740 5741 5742 5742 5743 5744 5745 5746 5746 5747 5748 5749 5748 5749 5750 5751 5754 5756 5757 5758 5758 5759 5760 5761 5761 5761 5762 5764 5765 5764 5765 5767 5765 5762 5763 5763 5763 5764 5765 5766 5767 5768 5769 5770 5771
5712 5712 5712 5713 5714 5714 5715 5716 5716 5717 5717 5718 5719 5720 5721 5722 5723 5724 5725 5725 5726 5726 5727 5728 5728 5728 5729 5730 5731 5732 5732 5732 5732 5733 5733 5734 5734 5734 5735 5735 5736 5737 5737 5738 5739 5740 5740 5741 5742 5743 5743 5744 5745 5746 5746 5747 5747 5748 5750 5753 5755 5756 5759 5760 5759 5759 5760 5760 5760 5762 5763 5764 5765 5766 5767 5765 5762 5763 5762 5762 5762 5762 5763 5764 5765 5766 5767 5768
5710 5710 5710 5711 5711 5712 5713 5713 5714 5714 5715 5716 5717 5718 5718 5719 5720 5721 5722 5723 5723 5724 5725 5726 5726 5726 5727 5728 5729 5730 5729 5730 5730 5731 5731 5732 5732 5733 5733 5734 5734 5735 5736 5736 5737 5738 5739 5740 5741 5741 5742 5742 5743 5744 5745 5746 5747 5747 5749 5753 5755 5755 5757 5759 5759 5757 5758 5759 5760 5761 5762 5763 5765 5766 5766 5764 5762 5760 5759 5759 5759 5760 5761 5763 5763 5764 5765 5766
5708 5708 5708 5709 5709 5710 5710 5711 5711 5712 5712 5713 5714 5715 5716 5716 5718 5719 5720 5720 5721 5722 5723 5723 5723 5724 5725 5726 5727 5728 5727 5728 5728 5729 5729 5730 5730 5731 5731 5732 5732 5733 5734 5735 5736 5737 5737 5738 5739 5740 5741 5741 5742 5743 5744 5745 5746 5746 5748 5752 5754 5753 5754 5757 5757 5755 5755 5758 5758 5758 5760 5761 5762 5764 5764 5762 5759 5757 5756 5756 5757 5758 5759 5761 5762 5762 5763 5763
5706 5706 5706 5707 5707 5707 5708 5708 5709 5709 5710 5711 5711 5712 5713 5714 5715 5716 5717 5718 5719 5719 5720 5721 5721 5722 5722 5723 5724 5725 5725 5725 5726 5727 5727 5728 5728 5729 5730 5730 5731 5731 5732 5733 5734 5735 5736 5736 5736 5737 5739 5740 5740 5741 5742 5743 5744 5745 5746 5749 5752 5752 5751 5754 5755 5753 5753 5755 5757 5757 5758 5758 5759 5761 5762 5761 5758 5756 5755 5754 5755 5756 5757 5758 5760 5761 5761 5762
5703 5704 5704 5705 5705 5705 5706 5706 5706 5707 5707 5708 5709 5709 5710 5711 5712 5713 5714 5716 5716 5717 5718 5719 5719 5720 5720 5720 5721 5723 5723 5723 5724 5724 5725 5725 5726 5727 5728 5728 5729 5729 5730 5731 5732 5733 5734 5734 5734 5734 5737 5738 5738 5739 5740 5741 5742 5743 5744 5746 5749 5750 5749 5750 5751 5751 5751 5752 5754 5755 5757 5757 5758 5759 5760 5760 5759 5756 5755 5754 5753 5754 5754 5754 5756 5759 5759 5760
5701 5701 5702 5702 5702 5703 5703 5704 5704 5704 5705 5706 5706 5707 5708 5709 5710 5711 5712 5713 5714 5715 5716 5716 5717 5718 5718 5718 5719 5720 5720 5721 5722 5722 5723 5723 5724 5725 5726 5726 5727 5728 5729 5729 5730 5732 5732 5732 5732 5733 5735 5736 5736 5737 5738 5739 5740 5741 5742 5744 5746 5748 5748 5746 5746 5747 5748 5748 5750 5752 5754 5756 5757 5758 5757 5758 5758 5757 5755 5754 5754 5753 5752 5750 5751 5753 5756 5756
5699 5699 5699 5700 5700 5700 5701 5701 5701 5702 5703 5704 5704 5705 5706 5707 5707 5708 5709 5710 5712 5713 5713 5714 5715 5715 5715 5715 5716 5717 5717 5718 5719 5719 5720 5721 5722 5723 5723 5724 5725 5726 5726 5727 5728 5729 5730 5730 5730 5731 5733 5734 5734 5735 5736 5737 5738 5739 5740 5742 5744 5746 5746 5744 5743 5743 5743 5745 5747 5749 5750 5752 5755 5755 5755 5756 5757 5756 5755 5754 5755 5754 5752 5750 5749 5750 5752 5752
5697 5697 5697 5697 5698 5698 5698 5699 5699 5699 5701 5702 5702 5703 5704 5704 5705 5706 5706 5708 5710 5710 5711 5712 5713 5712 5712 5712 5713 5714 5715 5715 5715 5715 5718 5719 5719 5720 5721 5722 5724 5724 5725 5725 5725 5727 5727 5728 5729 5729 5731 5731 5732 5733 5734 5735 5736 5737 5738 5739 5741 5743 5743 5742 5741 5740 5741 5743 5745 5746 5746 5748 5750 5751 5753 5754 5754 5753 5752 5752 5752 5751 5750 5750 5749 5749 5749 5750
5694 5694 5695 5695 5695 5696 5696 5696 5696 5697 5698 5699 5700 5700 5701 5701 5702 5703 5704 5705 5707 5708 5709 5710 5711 5710 5709 5710 5711 5712 5712 5713 5712 5713 5715 5717 5717 5717 5719 5721 5722 5722 5723 5723 5724 5726 5725 5725 5727 5727 5728 5729 5730 5732 5732 5733 5734 5735 5736 5737 5738 5739 5739 5739 5739 5739 5740 5741 5743 5743 5744 5746 5747 5749 5750 5751 5750 5750 5748 5749 5749 5748 5748 5748 5749 5749 5747 5748
5692 5692 5692 5692 5693 5693 5694 5694 5694 5695 5696 5696 5697 5698 5698 5699 5700 5701 5701 5703 5705 5705 5707 5708 5708 5708 5706 5708 5710 5710 5710 5711 5711 5711 5713 5714 5715 5716 5717 5718 5719 5720 5720 5720 5722 5724 5724 5723 5724 5725 5726 5727 5728 5730 5730 5730 5731 5732 5733 5734 5734 5735 5736 5737 5738 5738 5738 5739 5740 5741 5741 5742 5744 5746 5748 5748 5748 5748 5747 5746 5746 5747 5746 5746 5747 5747 5746 5746
5689 5689 5690 5690 5690 5691 5691 5691 5692 5693 5693 5694 5695 5695 5696 5697 5698 5698 5699 5701 5702 5703 5704 5704 5705 5705 5704 5706 5708 5708 5708 5709 5709 5709 5710 5712 5713 5714 5715 5716 5717 5717 5717 5718 5720 5722 5722 5722 5722 5722 5724 5726 5726 5727 5727 5728 5729 5729 5730 5731 5731 5732 5733 5734 5735 5736 5736 5736 5737 5739 5739 5739 5740 5743 5745 5745 5745 5745 5745 5745 5744 5744 5744 5743 5743 5744 5744 5744
5686 5686 5687 5687 5687 5688 5688 5689 5689 5690 5691 5692 5692 5693 5693 5694 5695 5695 5697 5698 5699 5700 5700 5701 5703 5703 5702 5703 5706 5706 5706 5706 5707 5707 5707 5710 5711 5712 5713 5713 5714 5715 5715 5715 5717 5718 5719 5719 5720 5720 5721 5723 5724 5724 5724 5724 5725 5726 5727 5728 5729 5730 5731 5731 5732 5733 5733 5733 5735 5737 5737 5736 5736 5738 5741 5742 5742 5742 5742 5743 5742 5742 5742 5739 5739 5742 5743 5742
5683 5683 5683 5684 5685 5685 5686 5686 5686 5687 5688 5689 5690 5690 5691 5692 5692 5693 5694 5695 5697 5697 5697 5699 5700 5700 5700 5702 5703 5704 5704 5704 5705 5704 5705 5707 5709 5710 5710 5711 5712 5713 5713 5713 5714 5716 5716 5716 5717 5718 5719 5720 5721 5722 5721 5722 5723 5724 5725 5726 5726 5727 5728 5728 5729 5729 5730 5731 5733 5734 5734 5733 5733 5735 5737 5738 5739 5739 5739 5740 5740 5741 5740 5737 5737 5739 5740 5740
5679 5680 5680 5681 5681 5682 5683 5683 5684 5684 5685 5686 5687 5688 5689 5689 5690 5692 5693 5693 5694 5695 5695 5696 5697 5697 5698 5699 5700 5701 5702 5702 5703 5703 5703 5704 5706 5707 5708 5709 5709 5710 5711 5712 5713 5713 5714 5714 5714 5716 5717 5717 5718 5719 5720 5721 5722 5723 5723 5724 5724 5725 5725 5725 5726 5726 5727 5729 5730 5730 5731 5730 5731 5732 5733 5734 5736 5736 5736 5738 5737 5738 5738 5737 5736 5736 5736 5737
5676 5677 5677 5677 5678 5679 5679 5680 5681 5681 5682 5683 5684 5685 5685 5686 5688 5690 5691 5691 5692 5693 5693 5694 5694 5694 5696 5697 5698 5699 5699 5700 5701 5701 5702 5703 5703 5705 5706 5707 5707 5708 5709 5710 5710 5710 5711 5712 5712 5713 5714 5714 5716 5717 5718 5719 5719 5720 5721 5721 5721 5722 5722 5723 5723 5724 5725 5726 5726 5727 5728 5728 5729 5729 5730 5731 5732 5732 5733 5734 5734 5735 5736 5735 5734 5734 5734 5735
5672 5673 5674 5674 5675 5675 5676 5677 5677 5678 5679 5679 5680 5681 5682 5684 5687 5688 5688 5689 5690 5691 5691 5692 5692 5693 5694 5695 5696 5697 5697 5699 5700 5700 5701 5702 5702 5702 5704 5705 5705 5706 5707 5707 5707 5708 5710 5710 5711 5712 5712 5713 5715 5715 5716 5717 5717 5717 5718 5719 5719 5719 5720 5721 5721 5722 5722 5723 5724 5724 5725 5726 5726 5726 5727 5728 5728 5728 5729 5731 5731 5732 5733 5732 5732 5733 5734 5736
5668 5669 5670 5671 5672 5672 5672 5673 5674 5675 5676 5676 5677 5678 5679 5682 5685 5685 5685 5686 5687 5689 5690 5689 5689 5690 5691 5693 5694 5695 5696 5697 5698 5699 5699 5700 5700 5700 5702 5703 5703 5703 5704 5704 5706 5707 5707 5708 5710 5711 5710 5711 5713 5713 5714 5715 5716 5715 5716 5717 5718 5717 5717 5718 5718 5719 5720 5721 5721 5722 5723 5723 5723 5723 5725 5726 5726 5725 5726 5727 5728 5729 5729 5729 5730 5732 5733 5735
5664 5665 5667 5667 5668 5668 5668 5669 5670 5671 5672 5673 5674 5675 5677 5680 5682 5682 5683 5684 5684 5685 5686 5686 5687 5688 5688 5690 5691 5692 5694 5695 5695 5696 5697 5697 5698 5699 5700 5700 5701 5702 5702 5702 5704 5704 5705 5706 5708 5709 5709 5710 5711 5712 5713 5713 5714 5714 5715 5716 5717 5715 5715 5716 5716 5717 5717 5718 5719 5720 5721 5721 5721 5722 5723 5724 5724 5723 5724 5724 5724 5724 5725 5726 5728 5730 5731 5732
5659 5661 5662 5663 5664 5663 5664 5665 5666 5667 5668 5669 5670 5672 5675 5677 5679 5679 5680 5681 5681 5681 5682 5684 5685 5685 5686 5687 5688 5690 5691 5692 5692 5693 5694 5695 5696 5697 5698 5698 5699 5700 5700 5700 5701 5701 5702 5704 5706 5707 5709 5709 5710 5711 5712 5711 5711 5713 5714 5714 5714 5714 5714 5714 5715 5715 5715 5716 5717 5719 5719 5719 5719 5720 5720 5721 5720 5720 5721 5721 5721 5722 5723 5724 5725 5727 5728 5728
5655 5657 5658 5659 5659 5659 5661 5662 5662 5663 5664 5664 5666 5669 5672 5674 5676 5676 5677 5679 5679 5679 5680 5681 5682 5683 5683 5684 5685 5687 5688 5689 5689 5690 5691 5693 5693 5694 5696 5696 5696 5697 5697 5697 5697 5698 5700 5702 5703 5704 5706 5707 5708 5708 5709 5710 5710 5711 5712 5712 5712 5712 5712 5712 5712 5713 5713 5714 5715 5716 5717 5717 5717 5717 5717 5718 5717 5716 5716 5716 5718 5720 5721 5722 5722 5723 5724 5724
5652 5653 5653 5653 5654 5656 5658 5658 5657 5658 5659 5660 5663 5667 5669 5671 5673 5673 5675 5676 5677 5677 5677 5678 5679 5680 5681 5682 5683 5684 5684 5685 5687 5688 5689 5690 5690 5691 5692 5692 5692 5692 5693 5694 5695 5696 5698 5699 5701 5701 5702 5704 5705 5705 5707 5708 5708 5709 5710 5710 5710 5710 5709 5710 5711 5711 5711 5712 5712 5714 5714 5714 5714 5714 5714 5715 5714 5713 5712 5712 5715 5717 5718 5719 5720 5720 5720 5721
5649 5650 5649 5649 5650 5652 5653 5652 5652 5653 5655 5658 5660 5663 5665 5668 5669 5670 5671 5672 5672 5673 5673 5675 5676 5677 5677 5679 5680 5681 5681 5683 5684 5684 5685 5686 5686 5687 5689 5689 5689 5689 5690 5692 5693 5694 5695 5695 5697 5699 5700 5702 5703 5704 5705 5706 5706 5706 5707 5707 5707 5707 5707 5708 5709 5709 5709 5709 5710 5710 5711 5711 5712 5712 5712 5712 5712 5711 5710 5710 5711 5713 5714 5715 5716 5716 5717 5718
5646 5646 5645 5645 5647 5648 5647 5647 5648 5650 5652 5654 5656 5659 5661 5663 5665 5667 5667 5667 5667 5667 5669 5671 5673 5673 5674 5675 5676 5677 5678 5679 5680 5681 5681 5682 5682 5683 5684 5686 5686 5686 5687 5688 5689 5691 5692 5692 5694 5696 5698 5700 5702 5701 5701 5702 5703 5704 5705 5705 5704 5704 5705 5706 5706 5706 5706 5706 5707 5707 5707 5708 5709 5710 5710 5710 5709 5709 5708 5707 5708 5711 5712 5712 5713 5712 5713 5714
5642 5642 5642 5642 5644 5644 5643 5644 5645 5646 5647 5650 5653 5655 5657 5659 5661 5663 5664 5664 5664 5664 5666 5669 5670 5671 5672 5673 5674 5675 5675 5676 5677 5679 5679 5678 5677 5678 5680 5682 5682 5682 5683 5683 5685 5688 5689 5690 5692 5694 5696 5698 5698 5698 5699 5700 5701 5701 5702 5703 5702 5702 5703 5703 5703 5704 5704 5704 5704 5704 5705 5706 5706 5706 5707 5707 5706 5705 5704 5705 5706 5707 5708 5709 5710 5709 5709 5710
5637 5638 5638 5639 5640 5640 5640 5641 5642 5643 5644 5647 5649 5650 5652 5654 5656 5658 5660 5660 5661 5662 5663 5664 5665 5667 5668 5669 5671 5672 5672 5673 5675 5676 5677 5674 5671 5673 5677 5677 5677 5679 5680 5680 5682 5685 5687 5688 5690 5691 5693 5694 5695 5696 5697 5699 5698 5698 5698 5699 5700 5699 5700 5700 5700 5701 5701 5702 5702 5702 5703 5703 5703 5703 5702 5702 5702 5701 5700 5701 5702 5703 5704 5705 5706 5706 5706 5706
5633 5633 5634 5635 5636 5636 5637 5637 5638 5638 5640 5642 5644 5645 5647 5648 5650 5653 5654 5655 5657 5659 5659 5660 5661 5662 5663 5664 5665 5666 5668 5669 5671 5673 5673 5670 5668 5670 5674 5674 5674 5676 5678 5678 5680 5682 5684 5685 5686 5687 5688 5691 5692 5693 5694 5694 5694 5694 5694 5694 5695 5695 5696 5696 5697 5698 5698 5698 5698 5699 5699 5699 5699 5699 5698 5698 5697 5696 5697 5697 5698 5698 5699 5700 5701 5701 5702 5702
5628 5628 5629 5629 5631 5632 5633 5633 5634 5635 5636 5637 5639 5640 5641 5643 5645 5648 5649 5650 5652 5653 5653 5654 5655 5656 5657 5658 5659 5661 5663 5664 5666 5668 5669 5668 5667 5668 5670 5670 5671 5673 5675 5675 5676 5679 5681 5681 5682 5683 5684 5687 5689 5689 5689 5690 5690 5690 5689 5689 5690 5691 5692 5692 5693 5694 5694 5694 5695 5696 5695 5695 5696 5694 5694 5695 5693 5692 5693 5694 5694 5694 5694 5695 5696 5697 5698 5698
5622 5623 5624 5625 5627 5628 5628 5629 5630 5630 5631 5633 5634 5636 5637 5639 5641 5643 5645 5646 5646 5646 5648 5649 5650 5651 5654 5654 5654 5656 5658 5660 5662 5663 5665 5666 5665 5665 5666 5665 5667 5670 5671 5670 5672 5675 5677 5678 5678 5680 5681 5683 5685 5685 5686 5687 5688 5688 5687 5686 5686 5687 5688 5688 5689 5691 5691 5691 5693 5693 5691 5692 5693 5690 5690 5692 5691 5689 5689 5690 5690 5690 5691 5692 5692 5693 5694 5694
5617 5619 5621 5621 5623 5624 5624 5624 5625 5625 5626 5628 5629 5630 5632 5634 5636 5638 5640 5641 5640 5642 5645 5645 5645 5648 5650 5649 5650 5652 5654 5656 5657 5658 5660 5661 5661 5661 5660 5660 5662 5664 5664 5666 5668 5670 5672 5674 5675 5676 5677 5678 5679 5681 5682 5682 5683 5684 5684 5684 5684 5683 5683 5684 5685 5687 5687 5687 5689 5688 5688 5690 5688 5686 5686 5686 5687 5687 5686 5686 5686 5686 5687 5688 5688 5688 5689 5690
5613 5615 5616 5616 5617 5619 5620 5621 5622 5622 5623 5625 5626 5627 5629 5630 5632 5634 5636 5636 5635 5637 5639 5639 5640 5643 5644 5643 5644 5647 5650 5652 5652 5653 5656 5657 5657 5658 5657 5656 5657 5657 5658 5661 5664 5667 5668 5669 5670 5671 5672 5673 5673 5674 5675 5677 5678 5680 5681 5681 5680 5679 5679 5680 5681 5681 5681 5682 5683 5683 5684 5686 5684 5682 5683 5682 5682 5683 5682 5681 5682 5683 5683 5683 5683 5684 5684 5685
5609 5610 5611 5612 5612 5613 5615 5617 5618 5618 5620 5621 5622 5624 5625 5626 5628 5630 5631 5631 5631 5632 5634 5633 5635 5638 5638 5638 5640 5643 5646 5646 5646 5647 5651 5653 5653 5654 5654 5653 5653 5653 5654 5655 5657 5660 5663 5664 5664 5666 5667 5667 5668 5669 5670 5671 5673 5674 5676 5676 5675 5674 5675 5676 5677 5677 5676 5676 5678 5677 5679 5680 5678 5677 5679 5679 5678 5679 5679 5678 5677 5677 5677 5677 5678 5679 5679 5679
5604 5605 5607 5608 5608 5609 5610 5611 5612 5613 5614 5616 5618 5619 5621 5622 5623 5624 5626 5626 5625 5627 5628 5628 5630 5633 5634 5635 5638 5640 5640 5641 5641 5643 5647 5650 5650 5651 5651 5650 5650 5649 5650 5650 5651 5653 5656 5657 5658 5661 5662 5662 5662 5664 5664 5664 5665 5667 5669 5669 5669 5670 5671 5671 5672 5672 5672 5672 5672 5671 5673 5674 5670 5670 5673 5674 5674 5675 5676 5675 5672 5670 5670 5671 5673 5674 5675 5673
5599 5601 5602 5603 5604 5604 5604 5605 5607 5609 5610 5612 5613 5615 5616 5616 5617 5619 5620 5620 5620 5621 5621 5623 5626 5628 5629 5632 5635 5636 5635 5636 5638 5640 5643 5646 5647 5647 5647 5647 5646 5646 5645 5645 5646 5648 5649 5650 5652 5654 5655 5656 5657 5658 5658 5658 5658 5660 5662 5663 5663 5665 5667 5666 5666 5666 5666 5667 5667 5667 5668 5666 5662 5663 5667 5668 5669 5671 5671 5669 5667 5666 5666 5666 5667 5669 5669 5669
5595 5596 5597 5598 5598 5599 5599 5601 5604 5605 5606 5608 5609 5610 5611 5611 5612 5616 5617 5616 5617 5617 5617 5621 5624 5625 5627 5630 5632 5631 5631 5633 5635 5636 5639 5641 5641 5641 5641 5641 5642 5643 5642 5641 5642 5643 5644 5645 5647 5648 5648 5649 5651 5652 5652 5652 5654 5655 5655 5656 5657 5659 5660 5660 5660 5659 5658 5659 5661 5662 5661 5658 5655 5658 5660 5660 5662 5665 5663 5661 5661 5662 5663 5663 5663 5662 5663 5664